JAL309 RJTT-RJFF

Flight info

Callsign JAL309
Flight time 1h 25m
Altitude 38000
Route GUSRO Y20 KIRIN
Aircraft B772/H-SDE2E3FGILRWXY/LB2

Departure

Time 2026-05-07 12:50
Airport Tokyo Haneda International Airport (RJTT)

Arrival

Time 2026-05-07 14:15
Airport Fukuoka Airport (RJFF)
Time Latitude Longitude Altitude Speed Heading
2026-05-07 12:34 35.55069 139.78117 35 ft 0 kts 28°
2026-05-07 12:41 35.55063 139.78114 35 ft 2 kts 27°
2026-05-07 12:41 35.55049 139.78105 35 ft 2 kts 26°
2026-05-07 12:41 35.55036 139.78098 35 ft 2 kts 27°
2026-05-07 12:41 35.55022 139.78090 35 ft 2 kts 27°
2026-05-07 12:42 35.55009 139.78081 35 ft 2 kts 27°
2026-05-07 12:42 35.54996 139.78073 35 ft 2 kts 27°
2026-05-07 12:42 35.54982 139.78064 35 ft 1 kts 28°
2026-05-07 12:42 35.54973 139.78053 35 ft 2 kts 49°
2026-05-07 12:43 35.54961 139.78043 35 ft 2 kts 18°
2026-05-07 12:43 35.54946 139.78040 35 ft 2 kts 358°
2026-05-07 12:43 35.54931 139.78043 35 ft 2 kts 336°
2026-05-07 12:43 35.54918 139.78052 35 ft 2 kts 327°
2026-05-07 12:44 35.54913 139.78055 35 ft 0 kts 328°
2026-05-07 12:46 35.54914 139.78055 35 ft 1 kts 328°
2026-05-07 12:46 35.54953 139.78029 34 ft 11 kts 332°
2026-05-07 12:46 35.55045 139.77966 35 ft 18 kts 330°
2026-05-07 12:46 35.55172 139.77876 34 ft 21 kts 329°
2026-05-07 12:47 35.55235 139.77812 34 ft 8 kts 289°
2026-05-07 12:47 35.55228 139.77737 34 ft 9 kts 280°
2026-05-07 12:47 35.55278 139.77673 34 ft 11 kts 330°
2026-05-07 12:47 35.55357 139.77617 34 ft 13 kts 330°
2026-05-07 12:48 35.55452 139.77548 34 ft 18 kts 330°
2026-05-07 12:48 35.55575 139.77463 34 ft 22 kts 330°
2026-05-07 12:48 35.55713 139.77364 34 ft 21 kts 329°
2026-05-07 12:48 35.55742 139.77258 34 ft 15 kts 232°
2026-05-07 12:49 35.55653 139.77181 34 ft 16 kts 202°
2026-05-07 12:49 35.55564 139.77216 34 ft 15 kts 149°
2026-05-07 12:49 35.55364 139.77354 35 ft 69 kts 150°
2026-05-07 12:49 35.54695 139.77834 42 ft 145 kts 155°
2026-05-07 12:50 35.53763 139.78516 602 ft 162 kts 154°
2026-05-07 12:50 35.52828 139.79178 1542 ft 155 kts 155°
2026-05-07 12:50 35.51848 139.79869 1870 ft 173 kts 155°
2026-05-07 12:50 35.50750 139.80640 2219 ft 189 kts 156°
2026-05-07 12:51 35.49477 139.81194 2538 ft 199 kts 175°
2026-05-07 12:51 35.48074 139.81126 3011 ft 204 kts 195°
2026-05-07 12:51 35.46782 139.80310 3344 ft 220 kts 226°
2026-05-07 12:51 35.46019 139.78639 3744 ft 239 kts 256°
2026-05-07 12:52 35.46091 139.76552 4307 ft 255 kts 285°
2026-05-07 12:52 35.47036 139.74678 5011 ft 266 kts 309°
2026-05-07 12:52 35.48347 139.73070 5787 ft 269 kts 312°
2026-05-07 12:52 35.49690 139.71463 6583 ft 271 kts 312°
2026-05-07 12:53 35.51045 139.69846 7296 ft 275 kts 312°
2026-05-07 12:53 35.52421 139.68199 8010 ft 279 kts 312°
2026-05-07 12:53 35.53825 139.66516 8748 ft 281 kts 312°
2026-05-07 12:53 35.55242 139.64827 9482 ft 283 kts 312°
2026-05-07 12:54 35.56667 139.63145 10152 ft 288 kts 312°
2026-05-07 12:54 35.58143 139.61397 10523 ft 304 kts 312°
2026-05-07 12:54 35.59716 139.59525 10869 ft 321 kts 312°
2026-05-07 12:54 35.61300 139.57636 11229 ft 336 kts 312°
2026-05-07 12:55 35.63041 139.55559 11603 ft 351 kts 312°
2026-05-07 12:55 35.64818 139.53432 11963 ft 366 kts 312°
2026-05-07 12:55 35.66672 139.51189 12348 ft 379 kts 312°
2026-05-07 12:55 35.68559 139.48912 12956 ft 385 kts 312°
2026-05-07 12:56 35.70481 139.46591 13667 ft 389 kts 312°
2026-05-07 12:56 35.72404 139.44272 14418 ft 391 kts 312°
2026-05-07 12:56 35.74361 139.41898 15149 ft 394 kts 311°
2026-05-07 12:56 35.76089 139.39294 15822 ft 395 kts 301°
2026-05-07 12:57 35.77364 139.36275 16493 ft 395 kts 287°
2026-05-07 12:57 35.77816 139.33258 17094 ft 395 kts 270°
2026-05-07 12:57 35.77543 139.30397 17697 ft 395 kts 254°
2026-05-07 12:57 35.76437 139.27269 18408 ft 398 kts 241°
2026-05-07 12:58 35.75019 139.24339 19134 ft 401 kts 239°
2026-05-07 12:58 35.73542 139.21374 19741 ft 406 kts 239°
2026-05-07 12:58 35.72065 139.18417 19905 ft 409 kts 239°
2026-05-07 12:58 35.70574 139.15427 19918 ft 409 kts 239°
2026-05-07 12:59 35.69084 139.12448 19919 ft 408 kts 239°
2026-05-07 12:59 35.67594 139.09468 19924 ft 407 kts 239°
2026-05-07 12:59 35.66352 139.06370 19938 ft 408 kts 249°
2026-05-07 12:59 35.65584 139.03029 19953 ft 408 kts 259°
2026-05-07 13:00 35.65284 138.99561 19962 ft 408 kts 264°
2026-05-07 13:00 35.64890 138.96069 19994 ft 415 kts 260°
2026-05-07 13:00 35.64419 138.92537 20591 ft 419 kts 260°
2026-05-07 13:00 35.63950 138.89043 21540 ft 414 kts 260°
2026-05-07 13:01 35.63478 138.85530 22296 ft 415 kts 259°
2026-05-07 13:01 35.63002 138.82007 22836 ft 420 kts 259°
2026-05-07 13:01 35.62520 138.78439 23340 ft 426 kts 259°
2026-05-07 13:01 35.62033 138.74846 23949 ft 429 kts 259°
2026-05-07 13:02 35.61538 138.71205 24591 ft 431 kts 259°
2026-05-07 13:02 35.61046 138.67590 25210 ft 433 kts 259°
2026-05-07 13:02 35.60540 138.63886 25704 ft 439 kts 259°
2026-05-07 13:02 35.60039 138.60220 26186 ft 443 kts 259°
2026-05-07 13:03 35.59522 138.56455 26759 ft 446 kts 259°
2026-05-07 13:03 35.59005 138.52690 27342 ft 448 kts 259°
2026-05-07 13:03 35.58487 138.48926 27863 ft 451 kts 259°
2026-05-07 13:03 35.57966 138.45160 28351 ft 454 kts 259°
2026-05-07 13:04 35.57434 138.41319 28824 ft 458 kts 259°
2026-05-07 13:04 35.56897 138.37448 29294 ft 461 kts 259°
2026-05-07 13:04 35.56357 138.33568 29784 ft 463 kts 258°
2026-05-07 13:04 35.56057 138.31413 30066 ft 464 kts 258°
2026-05-07 13:05 35.55647 138.28479 30425 ft 466 kts 258°
2026-05-07 13:05 35.55160 138.24999 30916 ft 466 kts 258°
2026-05-07 13:05 35.54869 138.22916 31234 ft 466 kts 258°
2026-05-07 13:05 35.54800 138.22426 31312 ft 466 kts 258°
2026-05-07 13:06 35.54289 138.18784 31918 ft 463 kts 258°
2026-05-07 13:06 35.53873 138.15828 32400 ft 462 kts 258°
2026-05-07 13:06 35.53406 138.12511 32951 ft 459 kts 258°
2026-05-07 13:06 35.52854 138.08598 33599 ft 457 kts 258°
2026-05-07 13:07 35.52305 138.04718 34230 ft 457 kts 258°
2026-05-07 13:07 35.51751 138.00818 34882 ft 455 kts 258°
2026-05-07 13:07 35.51211 137.97020 35542 ft 453 kts 258°
2026-05-07 13:07 35.50666 137.93196 36201 ft 449 kts 258°
2026-05-07 13:08 35.50130 137.89447 36784 ft 447 kts 258°
2026-05-07 13:08 35.49588 137.85666 37234 ft 446 kts 258°
2026-05-07 13:08 35.49054 137.81941 37642 ft 446 kts 258°
2026-05-07 13:08 35.48513 137.78181 37981 ft 446 kts 258°
2026-05-07 13:09 35.47426 137.70660 37992 ft 445 kts 258°
2026-05-07 13:09 35.46343 137.63187 37981 ft 444 kts 258°
2026-05-07 13:10 35.45253 137.55711 37970 ft 444 kts 258°
2026-05-07 13:10 35.44161 137.48253 37957 ft 445 kts 258°
2026-05-07 13:11 35.43048 137.40689 37960 ft 454 kts 258°
2026-05-07 13:11 35.41905 137.32956 37965 ft 463 kts 258°
2026-05-07 13:12 35.41285 137.28769 37967 ft 464 kts 258°
2026-05-07 13:12 35.40937 137.26430 37966 ft 464 kts 258°
2026-05-07 13:13 35.40225 137.21643 37966 ft 463 kts 258°
2026-05-07 13:13 35.39061 137.13852 37949 ft 463 kts 258°
2026-05-07 13:14 35.37897 137.06091 37936 ft 462 kts 258°
2026-05-07 13:14 35.36727 136.98338 37927 ft 463 kts 258°
2026-05-07 13:15 35.35552 136.90576 37924 ft 462 kts 258°
2026-05-07 13:15 35.34371 136.82809 37920 ft 462 kts 258°
2026-05-07 13:16 35.33186 136.75055 37913 ft 461 kts 258°
2026-05-07 13:16 35.31999 136.67320 37919 ft 461 kts 258°
2026-05-07 13:17 35.30795 136.59512 37924 ft 461 kts 258°
2026-05-07 13:17 35.29599 136.51788 37937 ft 461 kts 258°
2026-05-07 13:18 35.28402 136.44084 37933 ft 460 kts 258°
2026-05-07 13:18 35.27204 136.36418 37921 ft 459 kts 258°
2026-05-07 13:19 35.26012 136.28821 37921 ft 458 kts 257°
2026-05-07 13:19 35.24800 136.21132 37914 ft 458 kts 257°
2026-05-07 13:20 35.23591 136.13483 37919 ft 458 kts 257°
2026-05-07 13:20 35.22371 136.05809 37916 ft 458 kts 257°
2026-05-07 13:21 35.21144 135.98120 37913 ft 457 kts 257°
2026-05-07 13:21 35.19918 135.90466 37918 ft 457 kts 258°
2026-05-07 13:22 35.18690 135.82835 37920 ft 457 kts 258°
2026-05-07 13:22 35.17433 135.75169 37924 ft 456 kts 257°
2026-05-07 13:23 35.16154 135.67578 37923 ft 456 kts 257°
2026-05-07 13:23 35.14858 135.59906 37922 ft 456 kts 257°
2026-05-07 13:24 35.13569 135.52293 37915 ft 455 kts 257°
2026-05-07 13:24 35.12276 135.44693 37911 ft 456 kts 257°
2026-05-07 13:25 35.10982 135.37111 37912 ft 456 kts 257°
2026-05-07 13:25 35.09675 135.29486 37922 ft 455 kts 257°
2026-05-07 13:26 35.08376 135.21936 37931 ft 456 kts 257°
2026-05-07 13:26 35.07056 135.14288 37919 ft 454 kts 257°
2026-05-07 13:27 35.05738 135.06689 37912 ft 454 kts 257°
2026-05-07 13:27 35.04425 134.99149 37913 ft 454 kts 257°
2026-05-07 13:28 35.03099 134.91560 37900 ft 453 kts 257°
2026-05-07 13:28 35.01781 134.84045 37903 ft 454 kts 257°
2026-05-07 13:29 35.00452 134.76498 37903 ft 453 kts 257°
2026-05-07 13:29 34.99121 134.68970 37904 ft 453 kts 257°
2026-05-07 13:30 34.97678 134.61504 37908 ft 453 kts 256°
2026-05-07 13:30 34.96183 134.53973 37911 ft 453 kts 256°
2026-05-07 13:31 34.94695 134.46484 37905 ft 454 kts 257°
2026-05-07 13:31 34.93202 134.38980 37906 ft 454 kts 256°
2026-05-07 13:32 34.91823 134.32065 37914 ft 453 kts 256°
2026-05-07 13:32 34.90366 134.24779 37912 ft 453 kts 256°
2026-05-07 13:33 34.88958 134.17758 37911 ft 451 kts 256°
2026-05-07 13:33 34.87466 134.10342 37914 ft 450 kts 256°
2026-05-07 13:34 34.85213 133.99191 37915 ft 451 kts 256°
2026-05-07 13:35 34.83704 133.91756 37929 ft 451 kts 256°
2026-05-07 13:35 34.82189 133.84317 37932 ft 451 kts 256°
2026-05-07 13:36 34.80632 133.76910 37932 ft 450 kts 256°
2026-05-07 13:36 34.79073 133.69533 37922 ft 450 kts 256°
2026-05-07 13:37 34.77502 133.62118 37925 ft 451 kts 256°
2026-05-07 13:37 34.75932 133.54727 37919 ft 452 kts 256°
2026-05-07 13:38 34.74353 133.47317 37918 ft 452 kts 256°
2026-05-07 13:38 34.72767 133.39899 37923 ft 450 kts 256°
2026-05-07 13:39 34.71343 133.33255 37943 ft 450 kts 256°
2026-05-07 13:39 34.70212 133.27992 37945 ft 450 kts 256°
2026-05-07 13:40 34.68610 133.20560 37945 ft 450 kts 256°
2026-05-07 13:40 34.67020 133.13202 37954 ft 451 kts 256°
2026-05-07 13:41 34.65429 133.05870 37942 ft 450 kts 255°
2026-05-07 13:41 34.63818 132.98462 37938 ft 450 kts 256°
2026-05-07 13:42 34.62212 132.91107 37938 ft 450 kts 256°
2026-05-07 13:42 34.60601 132.83746 37942 ft 449 kts 256°
2026-05-07 13:43 34.58988 132.76410 37930 ft 447 kts 256°
2026-05-07 13:43 34.57365 132.69052 37929 ft 448 kts 256°
2026-05-07 13:44 34.55745 132.61729 37930 ft 449 kts 256°
2026-05-07 13:44 34.54130 132.54450 37921 ft 446 kts 256°
2026-05-07 13:45 34.52510 132.47171 37913 ft 445 kts 255°
2026-05-07 13:45 34.50891 132.39922 37926 ft 445 kts 256°
2026-05-07 13:46 34.49282 132.32738 37937 ft 444 kts 255°
2026-05-07 13:46 34.47859 132.26399 37900 ft 442 kts 255°
2026-05-07 13:46 34.47062 132.22858 37590 ft 431 kts 255°
2026-05-07 13:47 34.46272 132.19351 36566 ft 433 kts 255°
2026-05-07 13:47 34.45466 132.15781 35583 ft 433 kts 255°
2026-05-07 13:47 34.44678 132.12294 34798 ft 430 kts 255°
2026-05-07 13:47 34.43881 132.08771 33815 ft 432 kts 255°
2026-05-07 13:48 34.43089 132.05278 32552 ft 440 kts 254°
2026-05-07 13:48 34.42271 132.01678 31256 ft 448 kts 255°
2026-05-07 13:48 34.41452 131.98074 30549 ft 443 kts 254°
2026-05-07 13:48 34.40631 131.94466 30005 ft 438 kts 254°
2026-05-07 13:49 34.39822 131.90916 29475 ft 438 kts 254°
2026-05-07 13:49 34.39003 131.87332 28947 ft 437 kts 254°
2026-05-07 13:49 34.38195 131.83797 28442 ft 434 kts 254°
2026-05-07 13:49 34.37394 131.80302 27884 ft 431 kts 254°
2026-05-07 13:50 34.36598 131.76829 27260 ft 427 kts 254°
2026-05-07 13:50 34.35809 131.73396 26597 ft 424 kts 254°
2026-05-07 13:50 34.35012 131.69928 26008 ft 419 kts 254°
2026-05-07 13:50 34.34242 131.66583 25596 ft 410 kts 254°
2026-05-07 13:51 34.33482 131.63287 25054 ft 405 kts 254°
2026-05-07 13:51 34.32726 131.60014 24365 ft 403 kts 254°
2026-05-07 13:51 34.31968 131.56735 23701 ft 401 kts 254°
2026-05-07 13:51 34.31228 131.53542 23141 ft 396 kts 254°
2026-05-07 13:52 34.30487 131.50343 22587 ft 392 kts 254°
2026-05-07 13:52 34.29751 131.47171 22011 ft 388 kts 254°
2026-05-07 13:52 34.29030 131.44070 21407 ft 385 kts 254°
2026-05-07 13:52 34.28303 131.40944 20765 ft 384 kts 253°
2026-05-07 13:53 34.27580 131.37845 20171 ft 380 kts 253°
2026-05-07 13:53 34.26868 131.34793 19602 ft 377 kts 253°
2026-05-07 13:53 34.26239 131.32098 19124 ft 373 kts 252°
2026-05-07 13:53 34.25536 131.29088 18621 ft 368 kts 252°
2026-05-07 13:54 34.24845 131.26137 18109 ft 364 kts 252°
2026-05-07 13:54 34.24163 131.23228 17925 ft 359 kts 252°
2026-05-07 13:54 34.23467 131.20264 17907 ft 363 kts 252°
2026-05-07 13:54 34.22780 131.17343 17903 ft 364 kts 252°
2026-05-07 13:55 34.22089 131.14404 17903 ft 365 kts 252°
2026-05-07 13:55 34.21391 131.11444 17903 ft 365 kts 253°
2026-05-07 13:55 34.20691 131.08475 17901 ft 364 kts 252°
2026-05-07 13:55 34.20000 131.05545 17901 ft 364 kts 252°
2026-05-07 13:56 34.19305 131.02617 17899 ft 363 kts 251°
2026-05-07 13:56 34.18336 130.99809 17809 ft 354 kts 243°
2026-05-07 13:56 34.17193 130.97170 17276 ft 352 kts 242°
2026-05-07 13:56 34.16044 130.94580 16486 ft 357 kts 242°
2026-05-07 13:57 34.14858 130.91902 15771 ft 358 kts 242°
2026-05-07 13:57 34.13691 130.89282 15232 ft 354 kts 242°
2026-05-07 13:57 34.12525 130.86659 14670 ft 351 kts 242°
2026-05-07 13:57 34.11356 130.84024 14068 ft 349 kts 242°
2026-05-07 13:58 34.10214 130.81447 13468 ft 348 kts 242°
2026-05-07 13:58 34.09077 130.78885 12908 ft 346 kts 242°
2026-05-07 13:58 34.07938 130.76331 12354 ft 343 kts 242°
2026-05-07 13:58 34.06806 130.73807 11995 ft 338 kts 242°
2026-05-07 13:59 34.05675 130.71301 11953 ft 342 kts 242°
2026-05-07 13:59 34.04531 130.68777 11941 ft 343 kts 242°
2026-05-07 13:59 34.03379 130.66222 11950 ft 343 kts 242°
2026-05-07 13:59 34.02241 130.63707 11942 ft 344 kts 242°
2026-05-07 14:00 34.01081 130.61148 11940 ft 344 kts 242°
2026-05-07 14:00 33.99941 130.58632 11946 ft 344 kts 242°
2026-05-07 14:00 33.98781 130.56074 11943 ft 345 kts 242°
2026-05-07 14:00 33.97635 130.53551 11942 ft 344 kts 242°
2026-05-07 14:01 33.96479 130.51012 11948 ft 344 kts 242°
2026-05-07 14:01 33.95330 130.48483 11953 ft 344 kts 242°
2026-05-07 14:01 33.94323 130.45872 11943 ft 336 kts 254°
2026-05-07 14:01 33.93916 130.43184 11869 ft 320 kts 261°
2026-05-07 14:02 33.93648 130.40581 11782 ft 306 kts 262°
2026-05-07 14:02 33.93403 130.38071 11716 ft 292 kts 262°
2026-05-07 14:02 33.93177 130.35692 11656 ft 278 kts 262°
2026-05-07 14:02 33.92970 130.33478 11596 ft 263 kts 262°
2026-05-07 14:03 33.92764 130.31306 11373 ft 256 kts 262°
2026-05-07 14:03 33.92555 130.29169 10963 ft 257 kts 262°
2026-05-07 14:03 33.92339 130.27045 10568 ft 257 kts 262°
2026-05-07 14:03 33.92115 130.24898 10208 ft 256 kts 262°
2026-05-07 14:04 33.91886 130.22781 9809 ft 256 kts 262°
2026-05-07 14:04 33.91648 130.20638 9430 ft 255 kts 262°
2026-05-07 14:04 33.91411 130.18526 9079 ft 254 kts 262°
2026-05-07 14:04 33.91147 130.16447 8698 ft 254 kts 254°
2026-05-07 14:05 33.90286 130.14587 8274 ft 256 kts 226°
2026-05-07 14:05 33.89247 130.13644 8004 ft 258 kts 214°
2026-05-07 14:05 33.88681 130.13242 7885 ft 257 kts 213°
2026-05-07 14:05 33.87290 130.12300 7602 ft 255 kts 212°
2026-05-07 14:06 33.86799 130.11971 7488 ft 255 kts 212°
2026-05-07 14:06 33.85276 130.11032 7123 ft 257 kts 201°
2026-05-07 14:06 33.83486 130.10855 6740 ft 263 kts 172°
2026-05-07 14:06 33.81787 130.11758 6369 ft 270 kts 146°
2026-05-07 14:07 33.80343 130.13205 6074 ft 268 kts 142°
2026-05-07 14:07 33.78946 130.14687 5712 ft 267 kts 141°
2026-05-07 14:07 33.77549 130.16167 5367 ft 265 kts 142°
2026-05-07 14:07 33.76174 130.17629 5019 ft 263 kts 142°
2026-05-07 14:08 33.74798 130.19096 4696 ft 260 kts 142°
2026-05-07 14:08 33.73459 130.20522 4546 ft 251 kts 142°
2026-05-07 14:08 33.72154 130.21919 4261 ft 249 kts 142°
2026-05-07 14:08 33.70857 130.23306 3939 ft 248 kts 142°
2026-05-07 14:09 33.69574 130.24674 3642 ft 246 kts 142°
2026-05-07 14:09 33.68301 130.26028 3345 ft 244 kts 142°
2026-05-07 14:09 33.67021 130.27391 3035 ft 243 kts 142°
2026-05-07 14:09 33.65870 130.28873 2734 ft 244 kts 129°
2026-05-07 14:10 33.64901 130.30547 2566 ft 237 kts 127°
2026-05-07 14:10 33.63990 130.32181 2488 ft 230 kts 127°
2026-05-07 14:10 33.63132 130.33730 2459 ft 215 kts 127°
2026-05-07 14:10 33.62319 130.35204 2395 ft 203 kts 127°
2026-05-07 14:11 33.61555 130.36578 2283 ft 193 kts 128°
2026-05-07 14:11 33.60659 130.37683 2238 ft 174 kts 146°
2026-05-07 14:11 33.59701 130.38501 2094 ft 164 kts 149°
2026-05-07 14:11 33.58747 130.39272 1652 ft 168 kts 150°
2026-05-07 14:12 33.57794 130.40010 1477 ft 156 kts 150°
2026-05-07 14:12 33.56921 130.40695 1498 ft 143 kts 150°
2026-05-07 14:12 33.56095 130.41347 1480 ft 140 kts 150°
2026-05-07 14:12 33.55281 130.41985 1486 ft 140 kts 150°
2026-05-07 14:13 33.54462 130.42624 1483 ft 140 kts 150°
2026-05-07 14:13 33.53649 130.43288 1487 ft 141 kts 143°
2026-05-07 14:13 33.53132 130.44305 1455 ft 148 kts 103°
2026-05-07 14:13 33.53238 130.45519 1244 ft 148 kts 68°
2026-05-07 14:14 33.53693 130.46642 949 ft 147 kts 61°
2026-05-07 14:14 33.54439 130.47376 671 ft 140 kts 12°
2026-05-07 14:14 33.55382 130.47232 508 ft 137 kts 332°
2026-05-07 14:14 33.56233 130.46680 424 ft 139 kts 329°
2026-05-07 14:15 33.57066 130.46107 184 ft 137 kts 329°
2026-05-07 14:15 33.57888 130.45549 56 ft 130 kts 330°
2026-05-07 14:15 33.58581 130.45077 49 ft 91 kts 330°
2026-05-07 14:15 33.59007 130.44801 49 ft 48 kts 341°
2026-05-07 14:16 33.59240 130.44769 49 ft 21 kts 360°
2026-05-07 14:16 33.59349 130.44769 49 ft 11 kts 354°
2026-05-07 14:16 33.59435 130.44722 49 ft 15 kts 329°
2026-05-07 14:16 33.59544 130.44647 49 ft 19 kts 330°
2026-05-07 14:17 33.59666 130.44565 49 ft 19 kts 330°
2026-05-07 14:17 33.59748 130.44516 49 ft 11 kts 359°
2026-05-07 14:17 33.59799 130.44557 49 ft 8 kts 26°
2026-05-07 14:17 33.59853 130.44539 49 ft 5 kts 344°
2026-05-07 14:18 33.59877 130.44562 49 ft 3 kts 60°
2026-05-07 14:18 33.59894 130.44597 49 ft 3 kts 60°
2026-05-07 14:18 33.59901 130.44612 49 ft 0 kts 60°